Location: Unspecified
(0.0000°N, 0.0000°E)
Time: 09:30:13
(UTC+00:00)

XW-2C - Pass Details

Date: 20 May 2021
Orbit: 506 x 525 km, 97.5° (Epoch: 17 June)

Event Time Altitude Azimuth Distance (km) Brightness Sun altitude
Rises 18:22:04 0° 199° (SSW) 2,618 ? -6.0°
Reaches altitude 10° 18:24:54 10° 224° (SW) 1,734 ? -6.6°
Maximum altitude 18:27:02 15° 259° (WSW) 1,462 ? -7.1°
Drops below altitude 10° 18:29:09 10° 294° (WNW) 1,735 ? -7.6°
Sets 18:32:01 0° 318° (NW) 2,623 ? -8.3°
